When you browse on this site, cookies collect data to enhance your experience and personalize the content and advertising you see.
Visit our Privacy Policy to learn more. By continuing to use the site, you agree to this use of cookies and data.
  • In Portugal
  • List of Countries
  • For 7 days
  • Water Temperature
  • Weather Map
  • Weather Widgets
  • user-avatar
    Login

    Hourly Weather Porabka

    Today, 18 September, Wednesday

    Time Temperature Precipitation Wind Pressure Humidity
    00:00 +6°C° 0.3 mm 5 mps 709 mmHg 87%
    01:00 +5°C° 0 mm 4 mps 710 mmHg 91%
    02:00 +4°C° 0.1 mm 4 mps 710 mmHg 91%
    03:00 +3°C° 0.1 mm 5 mps 710 mmHg 91%
    04:00 +3°C° 0.1 mm 5 mps 710 mmHg 92%
    05:00 +3°C° 0.1 mm 5 mps 710 mmHg 90%
    06:00 +3°C° 0.1 mm 6 mps 711 mmHg 89%
    07:00 +3°C° 0 mm 6 mps 712 mmHg 87%
    08:00 +5°C° 0.1 mm 5 mps 713 mmHg 86%
    09:00 +5°C° 0.1 mm 5 mps 713 mmHg 84%
    10:00 +5°C° 0.1 mm 5 mps 714 mmHg 83%
    11:00 +6°C° 0.1 mm 5 mps 714 mmHg 78%
    12:00 +7°C° 0.1 mm 5 mps 714 mmHg 74%
    13:00 +8°C° 0.1 mm 5 mps 714 mmHg 69%
    14:00 +8°C° 0 mm 5 mps 714 mmHg 67%
    15:00 +9°C° 0 mm 5 mps 714 mmHg 64%
    16:00 +9°C° 0 mm 5 mps 714 mmHg 62%
    17:00 +8°C° 0 mm 4 mps 714 mmHg 67%
    18:00 +7°C° 0 mm 3 mps 715 mmHg 72%
    19:00 +6°C° 0 mm 2 mps 715 mmHg 76%
    20:00 +6°C° 0 mm 2 mps 715 mmHg 76%
    21:00 +6°C° 0 mm 2 mps 715 mmHg 77%
    22:00 +6°C° 0 mm 2 mps 716 mmHg 77%
    23:00 +6°C° 0 mm 2 mps 716 mmHg 80%

    Tomorrow, 19 September, Thursday

    Time Temperature Precipitation Wind Pressure Humidity
    00:00 +5°C° 0 mm 2 mps 716 mmHg 82%
    01:00 +5°C° 0 mm 2 mps 716 mmHg 85%
    02:00 +4°C° 0 mm 2 mps 716 mmHg 86%
    03:00 +4°C° 0 mm 2 mps 716 mmHg 86%
    04:00 +4°C° 0 mm 2 mps 716 mmHg 87%
    05:00 +4°C° 0 mm 2 mps 716 mmHg 85%
    06:00 +5°C° 0 mm 2 mps 716 mmHg 83%
    07:00 +4°C° 0 mm 3 mps 717 mmHg 81%
    08:00 +5°C° 0 mm 3 mps 717 mmHg 73%
    09:00 +8°C° 0 mm 3 mps 717 mmHg 66%
    10:00 +8°C° 0 mm 4 mps 718 mmHg 58%
    11:00 +8°C° 0 mm 4 mps 718 mmHg 58%
    12:00 +10°C° 0 mm 4 mps 718 mmHg 57%
    13:00 +10°C° 0 mm 4 mps 717 mmHg 57%
    14:00 +10°C° 0.1 mm 4 mps 717 mmHg 59%
    15:00 +10°C° 0.1 mm 3 mps 717 mmHg 61%
    16:00 +10°C° 0.1 mm 3 mps 717 mmHg 63%
    17:00 +8°C° 0.1 mm 3 mps 717 mmHg 71%
    18:00 +7°C° 0.1 mm 2 mps 717 mmHg 78%
    19:00 +5°C° 0.1 mm 2 mps 717 mmHg 86%
    20:00 +5°C° 0.1 mm 2 mps 717 mmHg 88%
    21:00 +4°C° 0.1 mm 2 mps 718 mmHg 90%
    22:00 +4°C° 0.1 mm 2 mps 718 mmHg 93%
    23:00 +4°C° 0 mm 2 mps 718 mmHg 93%

    Day after tomorrow, 20 September, Friday

    Time Temperature Precipitation Wind Pressure Humidity
    00:00 +4°C° 0 mm 2 mps 718 mmHg 93%
    01:00 +3°C° 0 mm 2 mps 718 mmHg 93%
    02:00 +3°C° 0 mm 2 mps 718 mmHg 93%
    03:00 +3°C° 0 mm 2 mps 718 mmHg 94%
    04:00 +2°C° 0 mm 2 mps 718 mmHg 94%
    05:00 +3°C° 0 mm 2 mps 718 mmHg 93%
    06:00 +4°C° 0 mm 2 mps 719 mmHg 91%
    07:00 +5°C° 0 mm 2 mps 719 mmHg 89%
    08:00 +6°C° 0 mm 2 mps 719 mmHg 81%
    09:00 +8°C° 0 mm 2 mps 720 mmHg 72%
    10:00 +9°C° 0 mm 2 mps 720 mmHg 64%
    11:00 +10°C° 0 mm 3 mps 720 mmHg 59%
    12:00 +11°C° 0 mm 3 mps 720 mmHg 55%
    13:00 +11°C° 0 mm 3 mps 720 mmHg 50%
    14:00 +11°C° 0 mm 3 mps 719 mmHg 52%
    15:00 +12°C° 0 mm 2 mps 719 mmHg 54%
    16:00 +12°C° 0 mm 2 mps 719 mmHg 56%
    17:00 +9°C° 0 mm 2 mps 719 mmHg 62%
    18:00 +8°C° 0 mm 1 mps 719 mmHg 68%
    19:00 +7°C° 0 mm 1 mps 719 mmHg 74%
    20:00 +6°C° 0 mm 1 mps 719 mmHg 75%
    21:00 +6°C° 0 mm 1 mps 719 mmHg 75%
    22:00 +5°C° 0 mm 1 mps 719 mmHg 76%
    23:00 +5°C° 0 mm 1 mps 719 mmHg 76%

    21 September, Saturday

    Time Temperature Precipitation Wind Pressure Humidity
    00:00 +5°C° 0 mm 1 mps 719 mmHg 77%
    01:00 +4°C° 0 mm 1 mps 719 mmHg 77%
    02:00 +4°C° 0 mm 1 mps 719 mmHg 77%
    03:00 +4°C° 0 mm 1 mps 719 mmHg 77%
    04:00 +4°C° 0 mm 1 mps 719 mmHg 77%
    05:00 +5°C° 0 mm 1 mps 719 mmHg 74%
    06:00 +6°C° 0 mm 1 mps 719 mmHg 71%
    07:00 +7°C° 0 mm 1 mps 719 mmHg 67%
    08:00 +10°C° 0 mm 1 mps 719 mmHg 60%
    09:00 +12°C° 0 mm 1 mps 720 mmHg 52%
    10:00 +15°C° 0 mm 1 mps 720 mmHg 44%
    11:00 +16°C° 0 mm 1 mps 720 mmHg 42%
    12:00 +18°C° 0 mm 1 mps 719 mmHg 40%
    13:00 +18°C° 0 mm 1 mps 719 mmHg 38%
    14:00 +18°C° 0 mm 1 mps 719 mmHg 43%
    15:00 +18°C° 0 mm 1 mps 718 mmHg 47%
    16:00 +16°C° 0 mm 1 mps 718 mmHg 52%
    17:00 +14°C° 0 mm 1 mps 717 mmHg 57%
    18:00 +12°C° 0 mm 1 mps 717 mmHg 63%
    19:00 +9°C° 0 mm 1 mps 717 mmHg 68%
    20:00 +9°C° 0 mm 1 mps 717 mmHg 70%
    21:00 +8°C° 0 mm 1 mps 717 mmHg 71%
    22:00 +8°C° 0 mm 1 mps 717 mmHg 73%
    23:00 +8°C° 0 mm 1 mps 716 mmHg 73%

    22 September, Sunday

    Time Temperature Precipitation Wind Pressure Humidity
    00:00 +7°C° 0 mm 1 mps 716 mmHg 74%
    01:00 +7°C° 0 mm 1 mps 716 mmHg 74%
    02:00 +7°C° 0 mm 1 mps 716 mmHg 74%
    03:00 +6°C° 0 mm 1 mps 716 mmHg 74%
    04:00 +6°C° 0 mm 1 mps 715 mmHg 73%
    05:00 +7°C° 0 mm 1 mps 715 mmHg 70%
    06:00 +8°C° 0 mm 1 mps 715 mmHg 68%
    07:00 +9°C° 0 mm 1 mps 715 mmHg 65%
    08:00 +11°C° 0 mm 1 mps 715 mmHg 58%
    09:00 +14°C° 0 mm 1 mps 715 mmHg 51%
    10:00 +16°C° 0 mm 1 mps 715 mmHg 44%
    11:00 +19°C° 0 mm 1 mps 715 mmHg 42%
    12:00 +20°C° 0 mm 1 mps 715 mmHg 41%
    13:00 +21°C° 0 mm 1 mps 714 mmHg 39%
    14:00 +20°C° 0 mm 1 mps 714 mmHg 44%
    15:00 +20°C° 0 mm 1 mps 713 mmHg 49%
    16:00 +19°C° 0 mm 1 mps 713 mmHg 54%
    17:00 +16°C° 0 mm 1 mps 712 mmHg 58%
    18:00 +14°C° 0 mm 1 mps 712 mmHg 61%
    19:00 +12°C° 0 mm 2 mps 711 mmHg 65%
    20:00 +12°C° 0 mm 2 mps 711 mmHg 64%
    21:00 +12°C° 0 mm 2 mps 711 mmHg 63%
    22:00 +10°C° 0 mm 2 mps 710 mmHg 62%
    23:00 +11°C° 0 mm 1 mps 710 mmHg 61%

    23 September, Monday

    Time Temperature Precipitation Wind Pressure Humidity
    00:00 +11°C° 0 mm 1 mps 709 mmHg 61%
    01:00 +11°C° 0 mm 1 mps 709 mmHg 60%
    02:00 +11°C° 0 mm 1 mps 708 mmHg 61%
    03:00 +11°C° 0 mm 1 mps 708 mmHg 62%
    04:00 +11°C° 0 mm 1 mps 707 mmHg 63%
    05:00 +11°C° 0 mm 1 mps 707 mmHg 64%
    06:00 +12°C° 0 mm 1 mps 707 mmHg 66%
    07:00 +13°C° 0 mm 1 mps 707 mmHg 68%
    08:00 +15°C° 0 mm 1 mps 707 mmHg 65%
    09:00 +18°C° 0 mm 1 mps 707 mmHg 61%
    10:00 +20°C° 0 mm 1 mps 707 mmHg 58%
    11:00 +20°C° 0 mm 1 mps 707 mmHg 58%
    12:00 +20°C° 0 mm 2 mps 707 mmHg 58%
    13:00 +21°C° 0 mm 2 mps 707 mmHg 58%
    14:00 +20°C° 0.1 mm 2 mps 707 mmHg 63%
    15:00 +19°C° 0.1 mm 3 mps 707 mmHg 68%
    16:00 +18°C° 0.1 mm 3 mps 707 mmHg 73%
    17:00 +16°C° 0 mm 3 mps 707 mmHg 76%
    18:00 +14°C° 0 mm 3 mps 707 mmHg 78%
    19:00 +13°C° 0 mm 3 mps 707 mmHg 81%
    20:00 +13°C° 0.4 mm 2 mps 707 mmHg 85%
    21:00 +13°C° 0.4 mm 2 mps 707 mmHg 90%
    22:00 +12°C° 0.4 mm 2 mps 707 mmHg 94%
    23:00 +12°C° 0.8 mm 2 mps 707 mmHg 94%
    Show more